Weather History for Phillips, WI

Change the Weather History Date:

Wednesday, October 30, 2013

  Actual Average Record
Temperature  
Mean Temperature 42 °F -  
Max Temperature 48 °F 45 °F 68 °F (2008)
Min Temperature 35 °F 31 °F 21 °F (1996)
Degree Days  
Heating Degree Days 24    
Moisture  
Dew Point 41 °F    
Average Humidity 98    
Maximum Humidity 100    
Minimum Humidity 97    
Precipitation  
Precipitation 0.04 in - - ()
Sea Level Pressure  
Sea Level Pressure 29.95 in    
Wind  
Wind Speed 2 mph (SE)    
Max Wind Speed 8 mph    
Max Gust Speed -    
Visibility 2 miles    
Events Rain    
Averages and records for this station are not official NWS values.
T = Trace of Precipitation, MM = Missing Value Source: NWS Daily Summary

Daily Weather History Graph

Daily Weather History Graph

Search for Another Location

Airport:

Trip Planner

Search our weather history database for the weather conditions in past years. The results will help you decide how hot, cold, wet, or windy it might be!

Date:

Astronomy

Oct. 30, 2013 Rise Set
Actual Time 7:39 AM CDT 5:50 PM CDT
Civil Twilight 7:08 AM CDT 6:21 PM CDT
Nautical Twilight 6:33 AM CDT 6:56 PM CDT
Astronomical Twilight 5:58 AM CDT 7:31 PM CDT
Moon 3:16 AM CDT (10/30) 3:46 PM CDT (10/30)
Length of Visible Light 11h 13m
Length of Day
10h 11m
Waning Crescent, 17% of the Moon is Illuminated
Oct 30
Waning Crescent
Nov 3
New
Nov 9
First Quarter
Nov 17
Full
Nov 25
Last Quarter

Hourly Weather History & Observations

Time (CDT) Temp. Windchill Dew Point Humidity Pressure Visibility Wind Dir Wind Speed Gust Speed Precip Events Conditions
12:15 AM 35.1 °F - 34.2 °F 97% 30.12 in 5.0 mi Calm Calm - N/A   Overcast
12:35 AM 35.1 °F - 34.2 °F 97% 30.11 in 5.0 mi Calm Calm - N/A   Overcast
12:55 AM 35.2 °F - 34.3 °F 97% 30.11 in 5.0 mi Calm Calm - N/A   Overcast
1:15 AM 35.2 °F - 34.7 °F 98% 30.11 in 4.0 mi Calm Calm - N/A   Overcast
1:35 AM 35.6 °F - 34.7 °F 97% 30.11 in 4.0 mi Calm Calm - N/A   Overcast
1:55 AM 35.6 °F - 34.9 °F 97% 30.10 in 5.0 mi Calm Calm - N/A   Overcast
2:15 AM 35.6 °F - 35.1 °F 98% 30.10 in 3.0 mi Calm Calm - 0.01 in Rain Light Rain
2:35 AM 35.8 °F 33.0 °F 35.2 °F 98% 30.09 in 4.0 mi SSE 3.5 mph - 0.01 in   Overcast
2:55 AM 36.1 °F - 35.6 °F 98% 30.09 in 4.0 mi Calm Calm - 0.01 in   Overcast
3:15 AM 36.5 °F 32.7 °F 35.8 °F 97% 30.08 in 3.0 mi SE 4.6 mph - N/A Rain Rain
3:35 AM 36.5 °F - 36.0 °F 98% 30.09 in 3.0 mi Calm Calm - N/A   Light Drizzle
3:55 AM 36.5 °F - 36.0 °F 98% 30.08 in 3.0 mi Calm Calm - N/A   Overcast
4:15 AM 36.7 °F - 36.1 °F 98% 30.08 in 3.0 mi Calm Calm - N/A   Overcast
4:35 AM 36.7 °F - 36.1 °F 98% 30.08 in 3.0 mi Calm Calm - N/A   Drizzle
4:55 AM 36.7 °F - 36.1 °F 98% 30.08 in 3.0 mi Calm Calm - N/A   Drizzle
5:15 AM 36.7 °F 34.1 °F 36.3 °F 99% 30.06 in 3.0 mi ESE 3.5 mph - 0.01 in Rain Light Rain
5:35 AM 36.9 °F - 36.5 °F 99% 30.06 in 3.0 mi Calm Calm - 0.01 in Rain Light Rain
5:55 AM 37.0 °F - 36.5 °F 98% 30.06 in 3.0 mi Calm Calm - 0.01 in   Overcast
6:15 AM 37.4 °F - 36.9 °F 98% 30.06 in 3.0 mi Calm Calm - N/A   Overcast
6:35 AM 37.4 °F - 36.9 °F 98% 30.05 in 3.0 mi Calm Calm - N/A   Drizzle
6:55 AM 37.6 °F - 37.0 °F 98% 30.05 in 3.0 mi Calm Calm - N/A   Light Drizzle
7:15 AM 37.6 °F 35.1 °F 37.0 °F 98% 30.04 in 3.0 mi SE 3.5 mph - N/A   Light Drizzle
7:35 AM 37.9 °F - 37.4 °F 98% 30.04 in 3.0 mi Calm Calm - N/A   Overcast
7:55 AM 38.3 °F - 37.6 °F 97% 30.03 in 3.0 mi Calm Calm - N/A   Overcast
8:15 AM 38.3 °F - 37.6 °F 97% 30.03 in 2.5 mi Calm Calm - N/A   Overcast
8:35 AM 38.3 °F - 37.8 °F 98% 30.04 in 1.8 mi Calm Calm - N/A   Overcast
8:55 AM 38.5 °F - 38.3 °F 99% 30.03 in 1.0 mi Calm Calm - N/A   Overcast
9:15 AM 38.5 °F 36.1 °F 38.3 °F 99% 30.03 in 1.0 mi East 3.5 mph - N/A   Overcast
9:35 AM 38.8 °F 36.5 °F 38.5 °F 99% 30.03 in 1.0 mi SE 3.5 mph - N/A   Overcast
9:55 AM 39.2 °F 37.0 °F 38.7 °F 98% 30.02 in 1.2 mi ESE 3.5 mph - N/A   Overcast
10:15 AM 39.4 °F 36.1 °F 39.2 °F 99% 30.02 in 1.2 mi ESE 4.6 mph - N/A   Overcast
10:35 AM 39.6 °F - 39.2 °F 99% 30.03 in 1.5 mi Calm Calm - N/A   Overcast
10:55 AM 40.1 °F 35.3 °F 39.6 °F 98% 30.03 in 2.0 mi SE 6.9 mph - N/A   Overcast
11:15 AM 40.1 °F 36.1 °F 39.6 °F 98% 30.02 in 1.2 mi SSE 5.8 mph - 0.01 in   Heavy Drizzle
11:35 AM 40.1 °F 36.9 °F 39.6 °F 98% 30.01 in 1.8 mi SE 4.6 mph - 0.02 in   Overcast
11:55 AM 40.3 °F 37.1 °F 39.9 °F 99% 29.99 in 1.8 mi SE 4.6 mph - 0.02 in   Overcast
12:15 PM 41.0 °F 38.0 °F 40.5 °F 98% 29.99 in 2.5 mi SE 4.6 mph - N/A   Overcast
12:35 PM 41.0 °F 38.0 °F 40.5 °F 98% 29.98 in 2.0 mi SSE 4.6 mph - N/A   Overcast
12:55 PM 41.4 °F 37.6 °F 41.0 °F 99% 29.97 in 2.5 mi SE 5.8 mph - N/A   Overcast
1:15 PM 42.1 °F 39.2 °F 41.9 °F 99% 29.94 in 1.5 mi ESE 4.6 mph - N/A   Overcast
1:35 PM 43.0 °F 40.3 °F 42.8 °F 99% 29.92 in 1.8 mi ESE 4.6 mph - N/A   Overcast
1:55 PM 43.3 °F 41.7 °F 43.0 °F 99% 29.92 in 2.0 mi ESE 3.5 mph - N/A   Overcast
2:15 PM 43.9 °F 42.3 °F 43.7 °F 99% 29.92 in 1.5 mi SE 3.5 mph - N/A   Overcast
2:35 PM 44.1 °F 41.5 °F 43.7 °F 99% 29.90 in 1.8 mi ESE 4.6 mph - N/A   Overcast
2:55 PM 44.6 °F 41.4 °F 43.9 °F 97% 29.89 in 3.0 mi ESE 5.8 mph - N/A   Overcast
3:15 PM 44.6 °F 41.4 °F 44.1 °F 98% 29.89 in 4.0 mi SE 5.8 mph - N/A   Overcast
3:35 PM 45.0 °F 41.8 °F 44.4 °F 98% 29.87 in 2.0 mi SE 5.8 mph - N/A   Overcast
3:55 PM 44.8 °F 41.6 °F 44.6 °F 99% 29.86 in 1.8 mi SE 5.8 mph - N/A   Overcast
4:15 PM 44.8 °F 41.6 °F 44.6 °F 99% 29.85 in 1.2 mi ESE 5.8 mph - N/A   Overcast
4:35 PM 45.0 °F 43.5 °F 44.6 °F 99% 29.84 in 1.8 mi SE 3.5 mph - N/A   Overcast
4:55 PM 45.0 °F 43.5 °F 44.6 °F 99% 29.83 in 1.8 mi ESE 3.5 mph - N/A   Overcast
5:15 PM 45.1 °F 42.8 °F 44.8 °F 99% 29.82 in 2.0 mi SE 4.6 mph - N/A   Overcast
5:35 PM 45.5 °F 44.2 °F 45.0 °F 98% 29.82 in 1.8 mi SE 3.5 mph - N/A   Light Drizzle
5:55 PM 45.5 °F 43.2 °F 45.0 °F 98% 29.82 in 1.5 mi SE 4.6 mph - N/A   Light Drizzle
6:15 PM 45.5 °F 43.2 °F 45.1 °F 99% 29.82 in 3.0 mi SE 4.6 mph - N/A   Overcast
6:35 PM 45.5 °F 44.2 °F 45.1 °F 99% 29.82 in 2.0 mi ESE 3.5 mph - N/A   Overcast
7:55 PM 46.6 °F - 46.4 °F 99% 29.80 in 3.0 mi South 5.8 mph - N/A   Overcast
8:15 PM 46.9 °F - 46.6 °F 99% 29.77 in 3.0 mi SE 8.1 mph - N/A   Overcast
8:35 PM 47.3 °F - 47.1 °F 99% 29.79 in 2.5 mi SSW 4.6 mph - N/A   Overcast
8:55 PM 47.3 °F - 47.3 °F 100% 29.78 in 1.5 mi South 4.6 mph - N/A   Overcast
9:15 PM 47.5 °F - 47.3 °F 99% 29.77 in 1.2 mi South 4.6 mph - N/A   Overcast
9:35 PM 47.5 °F - 47.5 °F 100% 29.76 in 1.0 mi South 5.8 mph - N/A   Overcast
9:55 PM 47.7 °F - 47.5 °F 99% 29.76 in 1.2 mi SSE 5.8 mph - N/A   Overcast
10:15 PM 47.8 °F - 47.8 °F 100% 29.76 in 1.5 mi South 6.9 mph - N/A   Overcast
10:35 PM 47.8 °F - 47.7 °F 99% 29.75 in 1.5 mi South 5.8 mph - N/A   Overcast
10:55 PM 48.2 °F - 47.8 °F 99% 29.75 in 1.5 mi South 5.8 mph - N/A   Overcast
11:15 PM 48.2 °F - 48.0 °F 99% 29.73 in 2.0 mi South 4.6 mph - N/A   Overcast
11:35 PM 48.2 °F - 47.8 °F 99% 29.71 in 2.0 mi SSE 4.6 mph - N/A   Overcast
11:55 PM 48.2 °F - 47.8 °F 99% 29.70 in 2.0 mi SSE 5.8 mph - N/A   Overcast